Wind_Speed
11 11 11 12 13 14 14 13 13 13 13 12 11 9 8 7 7 7 7 7 7 7 6 6 6 6 6 6 6 7 7 7 6 6 5 5 4 4 5 5 4 4 4 3 2 2 2 1 1
12 12 11 12 13 13 14 13 13 13 13 12 11 10 9 8 8 7 7 7 7 7 7 6 6 6 6 6 7 7 7 7 7 6 6 5 5 4 5 5 5 4 4 4 3 3 3 2 2
12 12 11 12 13 14 14 14 14 14 13 13 12 11 10 9 8 7 7 7 8 8 7 7 6 7 7 7 8 7 7 7 7 7 6 6 5 5 5 5 4 4 4 4 4 4 4 3 2
12 12 12 13 13 14 15 15 14 14 13 12 12 10 9 8 8 7 8 7 7 7 8 8 8 8 8 8 8 8 7 7 7 7 7 6 6 5 5 4 4 4 5 5 5 5 4 4 3
11 12 13 14 14 15 15 15 15 15 14 13 12 10 9 9 8 7 7 7 7 7 8 8 9 8 8 8 8 8 8 8 8 8 7 6 6 6 6 5 5 5 5 5 5 5 5 5 5
13 13 13 14 14 15 16 16 16 16 14 14 12 10 9 9 9 8 8 8 8 8 8 8 9 8 8 8 8 8 8 8 8 8 8 7 7 7 6 6 6 6 6 6 5 5 6 6 6
12 12 14 15 16 16 16 16 17 16 14 14 12 11 10 10 10 9 9 9 9 9 9 9 9 9 9 9 8 8 8 8 8 8 8 8 7 7 7 7 7 7 6 6 6 5 6 6 6
12 12 14 15 16 16 17 17 17 16 15 14 12 11 10 10 9 9 9 9 9 9 10 9 9 9 9 9 9 8 8 7 7 7 7 8 8 8 8 8 7 7 6 6 6 6 6 6 6
11 12 14 16 16 17 17 17 17 16 15 14 13 12 10 10 9 9 9 9 9 9 9 9 9 9 9 9 9 8 8 7 7 7 7 8 8 8 8 7 7 7 7 7 7 7 6 7 7
10 11 13 14 15 16 16 16 16 16 15 14 13 12 11 10 10 10 9 9 10 9 9 9 9 9 8 8 8 7 7 7 7 7 7 8 8 8 7 7 6 6 6 6 6 7 7 7 7
9 11 12 12 14 15 15 16 16 15 15 15 14 13 12 10 10 10 10 10 9 9 9 9 9 9 8 8 7 7 7 7 7 7 8 7 7 7 7 7 6 6 6 6 6 6 6 7 7
8 9 10 10 12 13 14 15 16 15 15 14 13 13 12 11 10 10 10 10 9 9 9 9 8 8 8 7 7 7 6 6 6 7 7 7 6 6 6 6 7 6 6 6 6 6 6 7 7
8 8 9 10 11 12 13 14 15 15 14 13 13 13 12 11 11 10 10 10 10 9 9 8 8 8 8 7 7 7 6 6 7 7 6 6 5 6 6 6 6 5 5 5 5 5 6 6 7
7 7 8 10 11 13 13 13 13 13 13 12 12 12 12 11 11 10 10 10 10 9 9 8 7 7 7 7 6 6 6 6 6 6 6 5 5 5 5 5 5 5 5 5 5 5 6 6 6
6 6 7 8 10 11 12 12 12 12 12 12 12 12 11 11 11 11 10 10 10 9 9 8 7 7 7 7 6 5 5 5 5 4 4 4 4 4 4 4 4 4 5 5 5 5 6 6 6
5 4 5 6 7 8 9 10 11 11 11 10 10 10 10 10 11 11 10 10 9 9 9 8 7 6 6 6 5 5 5 4 3 3 3 3 3 3 3 3 3 3 3 4 4 4 5 6 6
3 3 3 4 5 6 7 8 8 9 9 9 10 10 9 9 10 10 10 10 9 9 8 8 7 6 6 6 5 4 4 3 2 2 2 2 2 2 2 2 1 1 2 3 3 4 4 5 6
3 2 2 3 4 4 6 7 7 8 8 8 9 9 9 8 9 8 9 9 9 9 8 8 7 6 5 5 4 3 3 2 2 2 2 1 1 1 1 1 0 1 1 2 2 3 4 5 5
3 1 1 2 3 4 4 5 6 6 6 7 8 9 8 8 8 8 8 8 8 8 8 7 7 5 5 4 3 2 2 2 2 2 1 1 0 0 1 1 1 1 1 1 2 3 4 5 5
5 3 2 1 1 1 2 3 4 5 5 6 7 8 8 8 8 7 7 7 7 7 7 7 6 5 4 3 3 2 2 2 1 1 1 0 1 1 1 2 2 2 2 2 2 3 4 5 6
6 5 4 2 1 0 0 1 2 4 5 5 6 7 7 7 7 6 5 6 7 7 6 6 5 4 4 3 3 2 2 2 2 1 1 1 2 2 3 3 3 3 3 3 4 5 5 6 7
7 6 5 4 4 3 2 1 1 2 4 5 5 5 5 5 6 5 5 5 5 6 5 5 5 5 5 4 4 3 3 3 3 2 2 3 4 4 4 4 4 4 4 4 5 6 7 7 8
8 8 7 6 5 5 4 2 1 2 3 4 4 4 4 4 5 5 5 5 5 5 5 6 6 6 6 5 4 4 4 4 4 4 4 5 5 5 5 5 5 5 5 6 7 7 8 9 9
10 10 9 8 7 6 4 4 2 3 4 4 5 4 3 4 4 5 6 6 6 6 6 7 7 7 7 7 6 5 5 5 6 6 6 6 6 5 6 6 6 7 7 8 8 8 9 10 10
11 10 10 9 9 8 7 6 3 4 4 4 4 4 5 5 5 5 6 6 7 6 7 7 8 7 7 7 6 6 6 6 7 7 7 7 7 7 7 8 8 8 9 9 10 10 10 10 11
12 11 11 11 10 10 9 8 5 5 5 5 5 5 6 6 6 6 6 7 7 6 7 8 8 8 8 8 8 7 8 8 8 7 8 8 9 8 9 9 9 10 11 11 11 11 11 12 12
12 12 11 12 12 12 11 10 8 7 7 7 6 7 7 7 7 7 7 7 7 7 7 8 9 9 9 9 9 9 9 9 9 9 9 10 10 10 10 11 11 12 12 12 12 13 13 13 13
14 13 13 13 14 14 12 11 10 9 8 7 7 8 8 8 8 8 9 9 10 9 9 9 10 10 11 11 11 11 10 10 10 10 10 11 12 12 12 11 12 13 13 13 13 14 15 14 14
15 15 15 15 15 14 13 11 10 10 9 9 9 9 9 9 9 10 11 11 11 11 11 11 11 11 11 12 12 12 12 12 11 11 12 12 13 14 14 13 14 14 14 15 15 16 16 17 17
17 17 17 17 16 15 15 13 12 11 11 11 11 11 11 10 10 11 12 12 12 13 13 13 13 13 13 14 14 15 14 13 13 13 13 13 15 16 16 16 17 16 17 17 18 19 19 19 19
Wind_Direction
69 66 65 60 59 58 60 56 55 52 49 46 46 48 50 55 63 70 77 82 91 96 101 100 100 102 101 96 98 102 102 102 96 92 87 85 88 85 74 62 54 52 52 56 65 55 54 53 101
73 68 65 60 56 58 60 57 55 54 49 46 47 50 51 57 63 72 80 87 98 98 102 99 100 100 95 93 98 100 97 93 90 88 85 83 84 78 70 67 61 63 63 59 64 69 59 61 64
74 67 66 63 59 58 59 58 56 56 51 47 47 50 54 59 66 74 80 90 98 99 103 99 98 99 97 98 99 100 97 90 84 84 83 82 83 75 69 65 56 62 71 75 70 64 51 44 39
68 64 64 61 59 60 59 58 58 56 51 47 45 53 58 60 70 80 85 90 96 98 101 99 98 96 96 96 94 93 93 88 80 76 77 83 80 72 75 71 65 63 74 74 65 56 50 45 41
67 64 61 59 61 59 59 58 55 52 50 48 49 56 60 67 76 80 82 86 92 101 102 99 94 94 94 94 93 91 91 85 80 77 77 77 70 70 79 80 71 75 73 73 68 59 53 49 41
71 65 62 60 61 58 58 57 52 52 48 48 54 61 63 70 76 79 79 82 90 96 100 101 96 95 93 93 92 90 89 87 84 81 76 73 67 74 74 74 76 76 75 74 68 60 54 45 37
74 66 64 62 62 58 56 54 52 49 48 49 56 65 70 73 75 79 83 86 92 96 97 96 94 97 97 97 94 93 89 87 86 81 75 69 72 79 74 75 78 75 73 73 69 61 53 47 41
76 69 66 64 62 58 56 53 50 49 49 52 59 67 74 79 76 79 83 86 90 94 97 95 95 97 97 95 95 94 90 87 89 84 76 72 73 73 74 78 79 74 68 70 69 61 49 45 40
81 74 71 68 64 58 54 50 48 48 49 52 58 64 72 76 77 81 83 82 85 86 92 95 95 96 95 96 97 94 90 89 89 80 79 76 74 74 71 71 76 72 66 70 70 62 52 44 41
83 77 72 69 64 58 53 50 48 51 54 58 59 63 71 76 79 80 82 83 83 83 86 93 97 99 95 94 97 96 93 90 88 85 86 82 78 74 71 68 72 75 75 74 72 62 49 44 42
86 76 70 67 65 60 55 52 50 51 54 54 58 62 67 74 80 81 82 83 83 83 85 91 96 97 94 92 93 95 97 95 89 89 89 85 81 74 70 70 70 75 77 71 68 57 45 40 38
84 72 68 66 64 60 56 54 51 48 50 52 57 61 65 71 77 82 86 86 84 84 87 93 99 99 97 92 89 89 98 97 97 94 86 81 82 78 74 70 73 72 71 66 66 56 45 41 37
86 75 72 66 63 60 55 56 52 50 49 54 58 61 66 69 73 78 83 86 84 85 90 94 100 97 94 94 93 93 95 95 97 93 87 83 81 76 70 65 67 66 72 72 66 48 42 40 34
81 76 75 70 65 61 57 55 53 52 50 55 61 62 66 71 72 73 79 84 85 84 86 89 93 95 94 94 97 96 95 93 95 91 85 81 74 71 68 63 71 64 73 75 59 44 37 32 27
84 78 71 67 69 65 61 56 52 51 48 52 60 63 66 70 69 72 76 79 83 82 82 85 86 90 92 91 92 93 94 94 94 91 85 79 69 69 69 69 71 66 65 62 50 39 33 25 19
95 80 68 63 72 68 63 55 50 52 48 49 55 57 62 69 69 69 71 77 79 78 77 80 83 85 91 87 88 93 95 91 86 82 79 71 62 66 68 72 72 66 61 50 44 28 19 18 15
119 94 62 58 66 69 62 57 52 52 44 45 50 52 57 65 68 67 67 71 71 70 71 73 76 80 81 79 75 77 80 79 75 74 84 82 64 66 65 59 54 49 43 43 32 20 10 8 10
143 120 63 46 52 66 65 60 53 48 43 40 42 43 52 60 65 67 67 66 64 62 60 62 66 69 70 67 64 64 65 62 57 69 88 100 82 53 20 23 341 311 3 24 15 3 356 353 358
198 193 100 74 68 65 66 62 47 43 44 42 37 41 46 53 59 61 64 62 60 58 54 52 52 55 55 48 45 39 40 35 37 60 75 113 97 11 329 303 299 290 316 336 353 350 345 343 344
216 227 200 146 97 68 60 60 49 48 45 39 36 42 48 54 54 55 55 55 52 50 47 44 42 39 36 28 13 4 4 5 12 44 45 343 285 290 302 298 316 308 294 296 326 338 335 333 335
226 229 221 226 231 231 8 52 49 48 33 31 32 35 38 42 45 43 45 45 41 36 36 36 32 27 17 5 353 334 317 318 331 331 316 303 288 278 283 289 299 308 297 296 306 317 325 328 331
231 231 236 243 247 265 278 342 27 42 23 16 18 22 25 26 30 31 29 26 23 22 24 24 20 11 7 359 337 319 308 303 296 285 289 297 291 276 279 293 296 305 302 298 302 310 314 319 323
237 236 242 253 257 259 258 272 332 352 356 350 354 1 4 7 11 15 14 8 8 9 7 4 0 353 3 357 336 310 296 296 289 280 276 279 279 274 276 287 292 290 292 293 299 306 309 313 315
242 241 242 249 251 258 259 271 277 304 324 332 335 338 338 345 351 357 0 0 359 1 2 358 357 350 353 348 336 317 292 284 282 279 272 272 274 273 274 279 284 283 288 291 294 300 305 310 311
241 240 243 248 251 254 256 268 285 296 306 316 322 324 321 320 331 342 348 349 350 351 353 350 346 340 341 340 332 321 304 287 278 274 268 269 273 273 272 278 287 286 287 288 290 297 301 306 308
232 236 244 252 256 255 257 263 278 283 295 303 312 319 318 318 322 326 329 337 340 340 341 339 338 334 332 332 327 319 312 296 280 272 268 270 273 274 274 279 287 288 288 287 289 294 299 301 304
235 238 244 251 258 261 260 262 268 275 285 293 306 317 314 310 311 309 311 317 322 323 325 326 325 327 325 323 321 316 311 306 288 272 266 270 274 274 274 279 286 289 288 288 289 291 297 299 301
238 243 247 251 260 263 263 264 264 264 272 285 299 308 307 303 300 302 300 301 305 310 312 312 311 313 313 313 312 310 306 304 296 281 273 273 275 273 274 281 288 289 288 288 290 293 294 296 298
240 246 249 253 259 265 266 264 267 262 267 278 288 297 300 292 297 298 297 300 299 301 304 303 303 302 303 305 306 306 300 296 294 292 280 273 272 272 274 279 284 287 288 289 291 292 293 295 295
240 245 249 251 256 261 265 266 266 263 268 274 284 289 291 285 289 294 298 298 295 294 298 300 297 296 298 302 301 298 295 292 290 288 282 277 273 270 272 278 281 284 286 287 289 289 291 294 294
Height
5886 5886 5886 5885 5885 5883 5881 5881 5880 5879 5878 5877 5876 5875 5875 5875 5875 5877 5875 5874 5874 5874 5874 5875 5875 5875 5876 5876 5876 5877 5877 5878 5878 5879 5880 5880 5880 5880 5881 5881 5881 5880 5880 5880 5880 5880 5880 5879 5879
5888 5888 5888 5887 5885 5884 5883 5882 5881 5880 5879 5878 5877 5876 5875 5875 5875 5875 5874 5874 5874 5875 5875 5876 5876 5876 5876 5877 5877 5878 5878 5879 5879 5880 5880 5881 5881 5881 5881 5881 5881 5881 5880 5880 5880 5880 5880 5880 5879
5890 5890 5890 5888 5887 5886 5885 5883 5882 5881 5880 5879 5878 5877 5877 5876 5876 5876 5875 5875 5875 5876 5876 5876 5877 5877 5877 5878 5878 5878 5879 5880 5880 5881 5881 5882 5882 5882 5882 5882 5882 5881 5881 5881 5881 5881 5880 5880 5879
5893 5893 5892 5891 5889 5888 5886 5885 5883 5882 5882 5880 5879 5879 5878 5878 5877 5877 5876 5877 5877 5877 5877 5877 5878 5878 5878 5879 5879 5879 5880 5881 5882 5882 5882 5882 5883 5882 5882 5882 5882 5882 5882 5882 5882 5881 5881 5880 5879
5895 5894 5893 5892 5891 5889 5888 5886 5885 5884 5883 5881 5880 5880 5879 5879 5878 5878 5878 5878 5878 5878 5878 5879 5879 5879 5880 5880 5880 5881 5882 5882 5883 5883 5883 5883 5883 5883 5883 5883 5883 5883 5883 5882 5882 5882 5881 5880 5879
5897 5896 5895 5893 5892 5891 5889 5888 5886 5885 5884 5883 5882 5881 5880 5880 5880 5880 5879 5879 5879 5880 5880 5880 5880 5880 5881 5881 5881 5882 5883 5883 5884 5884 5884 5884 5884 5884 5884 5884 5884 5883 5883 5883 5883 5882 5882 5880 5879
5899 5898 5896 5895 5894 5893 5892 5890 5888 5887 5886 5885 5883 5883 5882 5881 5881 5881 5881 5881 5881 5881 5881 5881 5881 5882 5882 5882 5883 5884 5884 5885 5885 5885 5885 5885 5885 5885 5885 5885 5885 5884 5884 5884 5883 5883 5882 5881 5880
5901 5901 5898 5897 5896 5895 5894 5892 5890 5890 5888 5887 5886 5885 5884 5884 5883 5883 5883 5883 5882 5882 5882 5883 5883 5883 5883 5884 5884 5885 5885 5886 5886 5886 5886 5886 5886 5886 5886 5886 5886 5885 5885 5885 5884 5884 5883 5882 5881
5902 5903 5900 5899 5898 5897 5896 5894 5893 5892 5890 5889 5888 5887 5886 5886 5885 5885 5884 5884 5884 5884 5884 5884 5884 5884 5885 5885 5886 5886 5886 5887 5887 5887 5887 5888 5888 5887 5887 5887 5886 5886 5886 5886 5885 5885 5884 5883 5882
5904 5904 5902 5901 5900 5899 5898 5896 5895 5894 5893 5891 5890 5889 5888 5888 5887 5886 5886 5886 5886 5886 5886 5886 5886 5886 5886 5887 5887 5888 5888 5888 5888 5888 5888 5889 5889 5888 5888 5888 5888 5887 5887 5887 5887 5886 5886 5885 5884
5905 5905 5904 5903 5902 5901 5900 5898 5897 5896 5896 5894 5892 5891 5890 5890 5889 5889 5888 5888 5887 5887 5887 5887 5887 5887 5888 5888 5888 5888 5889 5889 5889 5889 5890 5890 5890 5890 5889 5889 5889 5889 5888 5888 5888 5887 5886 5886 5885
5907 5906 5906 5905 5904 5903 5902 5901 5899 5899 5898 5896 5894 5893 5893 5892 5891 5891 5890 5890 5889 5889 5889 5889 5889 5889 5889 5889 5889 5889 5890 5890 5890 5890 5891 5891 5891 5891 5890 5890 5890 5890 5889 5889 5888 5888 5887 5887 5886
5908 5908 5907 5906 5906 5905 5904 5903 5902 5901 5900 5898 5896 5895 5894 5894 5893 5892 5892 5891 5891 5891 5890 5890 5890 5890 5890 5890 5890 5890 5890 5891 5891 5891 5892 5892 5892 5892 5891 5891 5891 5890 5890 5890 5889 5889 5888 5887 5887
5910 5909 5909 5908 5908 5907 5906 5905 5904 5903 5902 5900 5899 5898 5897 5896 5895 5894 5893 5893 5892 5892 5892 5892 5892 5892 5892 5892 5892 5892 5892 5892 5892 5892 5893 5892 5892 5892 5892 5892 5891 5891 5890 5890 5890 5889 5889 5888 5888
5911 5911 5911 5910 5909 5909 5908 5907 5907 5905 5904 5903 5901 5900 5899 5898 5897 5896 5895 5895 5894 5894 5894 5894 5894 5893 5893 5893 5893 5893 5893 5893 5893 5893 5893 5893 5893 5893 5892 5892 5892 5892 5891 5891 5890 5890 5889 5889 5888
5912 5912 5912 5912 5911 5910 5911 5910 5909 5907 5906 5905 5904 5902 5901 5900 5899 5898 5897 5897 5896 5895 5895 5895 5895 5895 5894 5894 5894 5894 5894 5894 5894 5893 5893 5893 5893 5893 5893 5893 5893 5892 5892 5891 5891 5890 5890 5889 5888
5913 5913 5912 5913 5912 5911 5911 5910 5909 5909 5908 5907 5905 5904 5902 5901 5900 5900 5899 5898 5898 5897 5897 5896 5896 5895 5895 5895 5894 5894 5894 5894 5894 5894 5894 5893 5894 5894 5893 5893 5893 5892 5892 5891 5891 5890 5890 5889 5888
5913 5913 5913 5913 5913 5912 5912 5911 5910 5910 5909 5908 5906 5905 5904 5903 5902 5901 5900 5900 5899 5898 5898 5897 5897 5896 5895 5895 5895 5894 5894 5894 5894 5894 5894 5894 5894 5893 5893 5893 5893 5892 5892 5891 5891 5890 5890 5889 5888
5913 5914 5914 5914 5913 5913 5912 5912 5911 5910 5910 5909 5908 5906 5905 5904 5903 5902 5901 5901 5900 5899 5899 5898 5897 5896 5896 5895 5895 5895 5894 5894 5894 5893 5893 5893 5893 5893 5893 5892 5892 5892 5891 5891 5890 5890 5889 5888 5887
5912 5913 5913 5914 5913 5913 5913 5913 5912 5911 5911 5910 5909 5907 5906 5905 5905 5904 5903 5902 5901 5900 5899 5898 5898 5897 5896 5896 5895 5895 5894 5894 5893 5893 5893 5893 5893 5892 5892 5892 5892 5891 5891 5890 5890 5889 5888 5887 5886
5912 5912 5913 5913 5913 5913 5913 5913 5913 5912 5911 5911 5910 5909 5908 5907 5906 5905 5904 5903 5902 5901 5900 5899 5898 5897 5896 5896 5895 5894 5893 5893 5892 5892 5892 5892 5892 5892 5892 5891 5891 5891 5890 5890 5889 5888 5887 5886 5885
5911 5912 5912 5912 5912 5913 5914 5913 5913 5912 5912 5911 5910 5909 5909 5908 5906 5905 5905 5904 5902 5901 5900 5899 5898 5897 5896 5895 5894 5893 5893 5892 5892 5891 5891 5891 5891 5891 5891 5890 5890 5890 5889 5889 5888 5887 5886 5885 5884
5910 5910 5911 5911 5912 5912 5913 5913 5913 5912 5911 5911 5910 5909 5909 5908 5907 5905 5904 5903 5902 5901 5900 5899 5898 5897 5896 5895 5893 5892 5892 5892 5891 5890 5890 5890 5890 5890 5890 5889 5889 5889 5888 5887 5887 5886 5884 5883 5882
5908 5909 5909 5910 5910 5911 5912 5912 5912 5911 5911 5910 5910 5909 5908 5907 5906 5905 5904 5903 5902 5901 5900 5899 5898 5897 5895 5894 5893 5892 5891 5890 5890 5889 5889 5888 5888 5888 5888 5888 5887 5887 5887 5886 5885 5884 5883 5882 5880
5906 5908 5908 5908 5909 5910 5910 5910 5911 5910 5910 5910 5909 5908 5907 5907 5906 5905 5904 5903 5902 5901 5899 5898 5897 5896 5894 5893 5892 5890 5890 5889 5888 5888 5887 5887 5886 5886 5886 5886 5885 5885 5884 5884 5883 5882 5881 5880 5879
5904 5906 5907 5907 5907 5908 5908 5908 5910 5909 5909 5908 5908 5908 5907 5906 5905 5904 5903 5902 5901 5900 5899 5897 5896 5894 5893 5892 5890 5889 5888 5886 5885 5885 5885 5885 5885 5884 5884 5883 5883 5882 5882 5881 5880 5879 5878 5877 5876
5902 5903 5904 5905 5905 5906 5906 5907 5908 5907 5907 5907 5907 5906 5906 5905 5904 5903 5902 5901 5900 5899 5898 5896 5895 5893 5892 5890 5888 5887 5885 5884 5882 5882 5882 5883 5882 5882 5882 5881 5881 5880 5879 5878 5877 5877 5876 5874 5873
5900 5900 5902 5902 5902 5903 5904 5905 5906 5905 5905 5905 5905 5905 5904 5903 5902 5901 5900 5899 5898 5898 5896 5895 5893 5891 5889 5888 5886 5885 5883 5882 5880 5880 5880 5880 5880 5879 5879 5878 5878 5877 5876 5875 5874 5874 5872 5871 5870
5897 5898 5898 5899 5900 5901 5901 5905 5904 5903 5903 5903 5903 5903 5902 5901 5900 5899 5898 5897 5896 5895 5894 5892 5890 5889 5887 5886 5884 5883 5881 5880 5879 5878 5878 5877 5876 5876 5876 5875 5874 5874 5873 5872 5871 5870 5869 5867 5866
5893 5894 5895 5896 5897 5897 5898 5903 5901 5901 5901 5901 5901 5901 5900 5899 5898 5897 5896 5894 5893 5892 5891 5889 5888 5886 5884 5883 5881 5880 5878 5877 5876 5875 5874 5873 5872 5872 5871 5871 5870 5869 5869 5867 5866 5865 5864 5862 5861